�N����,����,�~����,�C��,���x,�C��,����,���ϕ���,�ő�u�ԕ���,�ő厞����,���˗�,�I�_���x,�n�����x,�ő啗���N��,DTYPE
"16/05/28","00:10",0.0,17.9,75.6,1004.8,309.9,1.3,2.6,325.4,0.00,13.6,20.5,"00:08:48",1
"16/05/28","00:20",0.0,17.9,75.6,1004.5,316.9,1.6,2.1,316.4,0.00,13.6,20.3,"00:11:52",1
"16/05/28","00:30",0.0,17.8,76.1,1004.3,325.9,1.3,2.0,338.0,0.00,13.6,20.4,"00:24:48",1
"16/05/28","00:40",0.0,17.7,76.6,1004.3,327.0,1.6,2.6,353.2,0.00,13.6,20.2,"00:31:52",1
"16/05/28","00:50",0.0,17.6,77.2,1004.5,335.7,1.6,2.7,343.7,0.00,13.6,20.4,"00:49:04",1
"16/05/28","01:00",0.0,17.5,77.7,1004.5,317.8,1.2,2.7,335.4,0.00,13.6,20.3,"00:50:16",1
"16/05/28","01:10",0.0,17.6,77.9,1004.3,315.2,1.3,2.1,344.0,0.00,13.7,20.2,"01:06:32",1
"16/05/28","01:20",0.0,17.7,77.9,1004.5,323.1,1.5,3.1,341.6,0.00,13.8,20.3,"01:19:52",1
"16/05/28","01:30",0.0,17.7,77.8,1004.5,332.4,1.7,3.9,342.8,0.00,13.8,20.1,"01:24:24",1
"16/05/28","01:40",0.0,17.6,78.5,1004.3,328.0,1.3,2.8,352.7,0.00,13.9,20.4,"01:33:12",1
"16/05/28","01:50",0.0,17.4,78.7,1004.3,329.7,1.5,2.5,332.7,0.00,13.7,20.3,"01:49:12",1
"16/05/28","02:00",0.0,17.4,79.2,1004.8,325.2,1.5,2.4,350.1,0.00,13.8,20.2,"01:51:12",1
"16/05/28","02:10",0.0,17.5,79.0,1004.1,328.0,1.6,2.6,343.4,0.00,13.9,20.2,"02:03:04",1
"16/05/28","02:20",0.0,17.5,79.2,1004.5,318.8,1.3,1.8,334.8,0.00,13.9,20.2,"02:15:12",1
"16/05/28","02:30",0.0,17.5,79.0,1004.1,322.0,1.5,2.4,332.1,0.00,13.9,20.0,"02:23:36",1
"16/05/28","02:40",0.0,17.6,79.1,1004.3,326.6,1.6,2.4,347.1,0.00,14.0,20.2,"02:39:20",1
"16/05/28","02:50",0.0,17.4,79.6,1004.3,332.5,1.3,2.6,323.5,0.00,13.9,20.0,"02:41:04",1
"16/05/28","03:00",0.0,17.3,79.6,1004.3,329.7,1.3,2.4,349.3,0.00,13.8,19.8,"02:51:12",1
"16/05/28","03:10",0.0,17.2,80.2,1004.1,331.6,1.5,2.7,347.5,0.00,13.8,19.9,"03:05:36",1
"16/05/28","03:20",0.0,17.2,80.8,1004.3,333.7,1.5,2.5,346.6,0.00,13.9,19.8,"03:13:44",1
"16/05/28","03:30",0.0,17.2,81.4,1003.8,335.8,1.3,2.2,347.2,0.00,14.0,20.0,"03:29:20",1
"16/05/28","03:40",0.0,17.2,81.0,1004.1,340.2,1.7,3.7,346.5,0.00,14.0,19.9,"03:32:40",1
"16/05/28","03:50",0.0,17.2,81.3,1004.5,325.2,1.2,2.7,336.9,0.00,14.0,19.8,"03:41:04",1
"16/05/28","04:00",0.0,17.1,81.8,1004.3,305.9,1.0,1.7,323.7,0.00,14.0,19.7,"03:50:56",1
"16/05/28","04:10",0.0,17.0,82.1,1004.3,296.0,1.0,1.6,316.3,0.00,14.0,19.9,"04:06:24",1
"16/05/28","04:20",0.0,17.0,82.4,1004.1,306.7,1.0,1.4,304.8,0.00,14.0,19.6,"04:14:48",1
"16/05/28","04:30",0.0,16.9,82.9,1004.5,307.4,0.8,1.6,318.5,0.00,14.0,19.8,"04:24:00",1
"16/05/28","04:40",0.0,16.9,83.4,1004.5,294.7,0.8,1.1,304.7,0.00,14.1,20.1,"04:36:24",1
"16/05/28","04:50",0.0,16.8,83.9,1004.3,300.9,1.0,1.3,305.4,0.00,14.1,19.6,"04:40:40",1
"16/05/28","05:00",0.0,16.9,84.0,1004.5,294.9,0.8,1.3,308.2,0.00,14.2,19.8,"04:52:32",1
"16/05/28","05:10",0.0,16.9,84.3,1004.1,307.1,0.7,1.2,311.5,0.00,14.3,19.6,"05:07:52",1
"16/05/28","05:20",0.0,16.9,84.8,1004.3,316.5,1.1,1.7,340.8,0.00,14.4,19.6,"05:11:20",1
"16/05/28","05:30",0.0,16.9,84.9,1004.5,307.8,1.0,1.3,328.5,0.00,14.4,19.5,"05:25:44",1
"16/05/28","05:40",0.0,17.0,84.5,1004.5,311.7,1.0,1.6,347.2,0.00,14.4,19.7,"05:36:56",1
"16/05/28","05:50",0.0,17.4,84.3,1004.3,330.5,1.0,1.7,337.0,0.01,14.8,19.6,"05:43:12",1
"16/05/28","06:00",0.0,17.5,83.9,1004.8,291.6,1.0,2.2,352.6,0.02,14.8,19.6,"05:58:08",1
"16/05/28","06:10",0.0,17.7,82.3,1004.8,318.9,1.3,2.0,327.9,0.01,14.7,19.6,"06:02:24",1
"16/05/28","06:20",0.0,18.0,80.9,1004.5,335.0,1.3,2.0,331.6,0.02,14.7,19.7,"06:17:12",1
"16/05/28","06:30",0.0,18.3,80.9,1004.8,325.9,1.3,2.5,338.8,0.04,15.0,19.5,"06:29:12",1
"16/05/28","06:40",0.0,18.4,80.4,1004.5,317.7,1.3,2.6,340.0,0.03,15.0,19.7,"06:34:16",1
"16/05/28","06:50",0.0,18.5,80.0,1003.8,313.0,1.2,2.0,338.4,0.03,15.0,19.9,"06:43:44",1
"16/05/28","07:00",0.0,18.5,79.6,1004.8,303.3,1.2,1.9,318.6,0.03,14.9,19.8,"06:56:48",1
"16/05/28","07:10",0.0,18.7,80.1,1004.5,292.4,1.0,1.4,312.9,0.04,15.2,19.9,"07:00:08",1
"16/05/28","07:20",0.0,18.9,79.9,1004.8,317.1,1.2,1.8,316.7,0.05,15.4,19.9,"07:11:36",1
"16/05/28","07:30",0.0,19.1,79.8,1004.5,300.1,1.0,1.7,331.8,0.04,15.6,19.9,"07:20:48",1
"16/05/28","07:40",0.0,19.4,79.1,1004.3,306.1,1.1,1.8,309.0,0.07,15.7,20.0,"07:38:16",1
"16/05/28","07:50",0.0,19.7,78.9,1004.5,300.1,1.0,1.7,336.6,0.06,16.0,20.0,"07:43:20",1
"16/05/28","08:00",0.0,19.7,77.9,1004.5,284.0,1.0,1.3,274.6,0.05,15.8,20.0,"07:52:48",1
"16/05/28","08:10",0.0,19.8,76.7,1004.5,309.1,1.1,1.8,324.7,0.06,15.6,20.2,"08:07:24",1
"16/05/28","08:20",0.0,19.9,76.9,1004.3,306.7,1.1,1.7,305.2,0.06,15.8,20.2,"08:16:56",1
"16/05/28","08:30",0.0,19.9,77.1,1004.5,305.4,1.0,1.7,322.1,0.07,15.8,20.2,"08:25:20",1
"16/05/28","08:40",0.0,20.0,78.4,1004.8,303.2,1.1,1.8,319.3,0.07,16.2,20.3,"08:31:52",1
"16/05/28","08:50",0.0,20.2,77.2,1004.3,303.2,1.1,1.9,338.8,0.07,16.1,20.2,"08:45:52",1
"16/05/28","09:00",0.0,20.3,75.6,1004.5,309.5,1.1,1.6,316.2,0.07,15.9,20.4,"08:50:16",1
"16/05/28","09:10",0.0,20.4,75.7,1004.5,302.7,1.0,1.7,309.1,0.07,16.0,20.4,"09:06:40",1
"16/05/28","09:20",0.0,20.5,75.2,1004.3,296.2,0.8,1.3,316.9,0.08,16.0,20.7,"09:11:52",1
"16/05/28","09:30",0.0,20.7,75.3,1004.3,298.8,1.0,1.6,320.2,0.10,16.2,20.6,"09:21:20",1
"16/05/28","09:40",0.0,21.0,72.4,1003.8,306.2,0.7,1.4,330.3,0.14,15.9,20.6,"09:34:32",1
"16/05/28","09:50",0.0,21.6,70.2,1003.6,295.6,0.5,1.4,241.1,0.18,16.0,20.6,"09:44:08",1
"16/05/28","10:00",0.0,22.0,66.9,1003.6,314.7,0.5,1.1,322.7,0.20,15.6,20.8,"09:56:32",1
"16/05/28","10:10",0.0,21.9,66.4,1003.8,13.0,0.5,1.3,12.1,0.14,15.4,20.8,"10:03:28",1
"16/05/28","10:20",0.0,22.0,66.4,1003.6,3.2,0.6,1.6,352.3,0.09,15.5,21.0,"10:15:52",1
"16/05/28","10:30",0.0,22.1,66.5,1003.4,346.2,0.7,1.6,349.6,0.09,15.6,21.0,"10:24:00",1
"16/05/28","10:40",0.0,22.0,69.6,1003.4,314.5,0.5,1.2,342.7,0.10,16.2,21.2,"10:31:04",1
"16/05/28","10:50",0.0,22.2,68.5,1003.1,343.5,0.6,1.4,351.6,0.14,16.2,21.2,"10:44:32",1
"16/05/28","11:00",0.0,22.4,68.4,1002.9,304.9,0.2,0.6,327.8,0.13,16.3,21.2,"10:50:48",1
"16/05/28","11:10",0.0,22.3,66.8,1003.4,326.4,0.3,1.0,329.5,0.11,15.9,21.1,"11:06:24",1
"16/05/28","11:20",0.0,22.5,69.8,1003.1,303.5,0.3,0.9,341.2,0.12,16.8,21.4,"11:12:08",1
"16/05/28","11:30",0.0,22.4,68.3,1003.1,312.9,0.5,1.1,344.7,0.12,16.3,21.4,"11:27:04",1
"16/05/28","11:40",0.0,22.4,67.2,1002.9,352.0,0.7,1.8,346.0,0.11,16.1,21.2,"11:35:12",1
"16/05/28","11:50",0.0,22.4,67.6,1002.9,348.1,0.8,2.0,339.1,0.12,16.2,21.5,"11:42:16",1
"16/05/28","12:00",0.0,22.5,69.6,1002.6,311.7,0.5,0.8,344.1,0.14,16.7,21.5,"11:50:32",1
"16/05/28","12:10",0.0,22.4,69.4,1002.6,286.7,0.3,1.0,235.7,0.12,16.6,21.5,"12:05:04",1
"16/05/28","12:20",0.0,22.6,68.4,1002.9,277.9,0.3,1.6,239.3,0.08,16.5,21.7,"12:13:52",1
"16/05/28","12:30",0.0,22.3,68.6,1002.6,321.5,0.5,1.1,344.0,0.09,16.3,21.5,"12:25:44",1
"16/05/28","12:40",0.0,22.3,67.6,1002.9,325.1,0.8,1.4,342.9,0.10,16.1,21.7,"12:30:48",1
"16/05/28","12:50",0.0,22.6,67.6,1002.6,334.4,0.7,1.6,334.7,0.10,16.3,21.8,"12:47:04",1
"16/05/28","13:00",0.0,22.6,70.7,1002.6,323.1,0.7,1.4,330.4,0.10,17.1,21.6,"12:50:48",1
"16/05/28","13:10",0.0,22.8,69.3,1002.6,310.9,0.6,1.7,348.0,0.14,16.9,22.0,"13:01:44",1
"16/05/28","13:20",0.0,23.1,70.3,1002.6,296.0,0.7,1.8,343.0,0.16,17.4,21.8,"13:17:52",1
"16/05/28","13:30",0.0,23.1,68.3,1002.6,312.2,0.7,1.9,352.7,0.11,17.0,22.0,"13:27:20",1
"16/05/28","13:40",0.0,23.5,68.9,1002.4,283.9,0.3,1.2,336.9,0.09,17.5,22.1,"13:30:08",1
"16/05/28","13:50",0.0,23.2,68.0,1002.4,296.3,0.6,1.9,331.5,0.09,17.0,21.9,"13:40:02",1
"16/05/28","14:00",0.0,23.5,66.4,1002.2,338.7,0.5,2.0,334.1,0.09,16.9,21.9,"13:50:48",1
"16/05/28","14:10",0.0,23.3,67.1,1002.4,304.3,0.2,0.9,290.1,0.11,16.9,22.0,"14:03:28",1
"16/05/28","14:20",0.0,23.4,70.8,1002.2,259.0,0.2,0.8,271.0,0.15,17.8,22.1,"14:10:02",1
"16/05/28","14:30",0.0,23.0,70.2,1001.9,252.9,0.6,1.4,199.5,0.12,17.3,22.1,"14:28:24",1
"16/05/28","14:40",0.0,22.9,68.7,1001.9,235.1,1.0,2.2,233.6,0.12,16.9,22.1,"14:33:04",1
"16/05/28","14:50",0.0,23.0,70.2,1001.7,244.1,1.0,1.9,238.0,0.08,17.3,22.2,"14:48:32",1
"16/05/28","15:00",0.0,22.7,70.1,1001.7,226.9,1.5,2.6,230.5,0.07,17.0,22.3,"14:51:28",1
"16/05/28","15:10",0.0,22.8,70.9,1001.7,217.0,1.5,2.8,233.8,0.08,17.3,22.1,"15:04:24",1
"16/05/28","15:20",0.0,22.6,70.0,1001.9,234.8,1.1,2.0,235.4,0.06,16.9,22.2,"15:17:44",1
"16/05/28","15:30",0.0,22.6,73.8,1001.7,280.7,0.7,1.3,235.6,0.06,17.7,22.1,"15:22:16",1
"16/05/28","15:40",0.0,22.5,72.6,1001.5,276.6,0.3,1.6,232.7,0.06,17.4,22.2,"15:30:02",1
"16/05/28","15:50",0.0,22.4,74.1,1001.7,216.2,1.2,2.2,203.2,0.07,17.6,22.2,"15:44:48",1
"16/05/28","16:00",0.0,22.4,73.9,1001.2,244.3,0.7,2.0,231.4,0.07,17.6,22.0,"15:50:24",1
"16/05/28","16:10",0.0,22.4,74.6,1001.5,280.8,0.5,1.1,168.2,0.04,17.7,22.1,"16:00:24",1
"16/05/28","16:20",0.0,22.2,74.6,1001.2,301.2,0.6,1.0,298.2,0.03,17.5,22.1,"16:16:56",1
"16/05/28","16:30",0.0,22.2,77.8,1001.5,336.7,0.7,1.4,348.9,0.03,18.2,21.9,"16:29:28",1
"16/05/28","16:40",0.0,22.1,79.4,1001.5,341.5,0.7,1.6,336.5,0.03,18.4,22.2,"16:35:44",1
"16/05/28","16:50",0.0,22.1,80.3,1001.2,326.1,1.0,2.1,337.2,0.04,18.6,22.0,"16:43:20",1
"16/05/28","17:00",0.0,22.1,80.4,1001.2,340.8,0.8,1.6,343.2,0.05,18.6,22.0,"16:56:08",1
"16/05/28","17:10",0.0,22.0,81.6,1001.5,336.9,1.0,1.7,323.3,0.03,18.7,21.8,"17:06:00",1
"16/05/28","17:20",0.0,21.9,80.4,1001.7,304.8,0.5,1.0,329.9,0.04,18.4,22.1,"17:11:28",1
"16/05/28","17:30",0.0,22.0,80.2,1001.9,317.5,0.7,1.4,346.1,0.04,18.5,22.1,"17:23:04",1
"16/05/28","17:40",0.0,22.0,78.7,1001.7,318.4,0.7,1.1,321.0,0.03,18.2,21.9,"17:33:28",1
"16/05/28","17:50",0.0,21.9,78.5,1001.9,302.9,0.6,1.0,341.7,0.02,18.0,21.9,"17:46:56",1
"16/05/28","18:00",0.0,21.8,78.0,1001.7,316.6,0.8,1.4,340.2,0.03,17.8,21.8,"17:54:08",1
"16/05/28","18:10",0.0,21.7,79.1,1001.7,299.6,0.7,1.1,305.5,0.03,18.0,22.0,"18:04:40",1
"16/05/28","18:20",0.0,21.6,79.6,1001.7,323.0,1.1,1.6,332.9,0.02,18.0,21.9,"18:12:08",1
"16/05/28","18:30",0.0,21.3,80.4,1001.7,312.6,0.8,1.7,336.4,0.01,17.8,21.8,"18:21:12",1
"16/05/28","18:40",0.0,21.1,81.1,1001.7,317.5,1.1,1.7,347.5,0.01,17.8,21.8,"18:38:24",1
"16/05/28","18:50",0.0,20.8,83.2,1001.7,316.9,1.0,1.4,335.7,0.00,17.9,21.9,"18:40:16",1
"16/05/28","19:00",0.0,20.4,84.6,1001.5,294.0,0.7,1.0,309.9,0.00,17.8,21.6,"18:52:40",1
"16/05/28","19:10",0.0,19.9,85.8,1002.2,310.0,1.0,1.2,311.7,0.00,17.5,21.6,"19:03:52",1
"16/05/28","19:20",0.0,19.6,87.6,1001.7,327.2,1.2,2.6,341.4,0.00,17.5,21.4,"19:15:20",1
"16/05/28","19:30",0.0,19.2,88.7,1002.2,307.8,1.0,1.8,324.0,0.00,17.3,21.2,"19:23:52",1
"16/05/28","19:40",0.0,18.8,89.6,1002.4,294.9,0.8,1.3,316.7,0.00,17.1,21.2,"19:37:52",1
"16/05/28","19:50",0.0,18.5,90.2,1002.4,291.7,0.8,1.3,325.0,0.00,16.9,21.1,"19:44:40",1
"16/05/28","20:00",0.0,18.2,90.9,1002.2,292.9,1.0,1.4,321.8,0.00,16.7,20.9,"19:57:04",1
"16/05/28","20:10",0.0,18.0,91.4,1002.2,295.0,1.0,1.3,311.3,0.00,16.6,21.0,"20:07:20",1
"16/05/28","20:20",0.0,17.9,91.9,1002.6,289.7,1.0,1.1,281.5,0.00,16.6,20.9,"20:11:28",1
"16/05/28","20:30",0.0,17.8,92.3,1002.4,288.0,1.0,1.2,276.2,0.00,16.6,20.8,"20:25:44",1
"16/05/28","20:40",0.0,17.6,92.5,1002.6,292.7,1.0,1.4,313.0,0.00,16.4,20.6,"20:39:28",1
"16/05/28","20:50",0.0,17.5,92.6,1002.9,302.0,0.8,1.4,315.5,0.00,16.3,20.5,"20:42:16",1
"16/05/28","21:00",0.0,17.3,92.9,1002.9,308.0,1.0,1.3,324.9,0.00,16.2,20.6,"20:59:12",1
"16/05/28","21:10",0.0,17.3,93.2,1002.6,295.0,0.8,1.3,313.4,0.00,16.2,20.2,"21:02:56",1
"16/05/28","21:20",0.0,17.1,93.0,1002.6,303.4,0.8,1.2,313.5,0.00,16.0,20.2,"21:16:16",1
"16/05/28","21:30",0.0,17.2,93.9,1003.1,300.7,1.1,1.7,315.2,0.00,16.2,20.2,"21:24:56",1
"16/05/28","21:40",0.0,17.2,93.5,1002.6,295.3,1.0,1.4,311.0,0.00,16.2,20.2,"21:30:02",1
"16/05/28","21:50",0.0,17.0,93.5,1003.1,300.7,1.0,1.2,309.3,0.00,16.0,20.1,"21:40:08",1
"16/05/28","22:00",0.0,16.9,93.5,1003.1,300.4,0.8,1.3,320.4,0.00,15.9,20.1,"21:52:48",1
"16/05/28","22:10",0.0,16.8,93.9,1003.4,297.2,0.8,1.3,304.4,0.00,15.9,19.8,"22:09:44",1
"16/05/28","22:20",0.0,16.8,94.1,1002.9,300.1,0.8,1.6,317.2,0.00,15.9,19.8,"22:11:12",1
"16/05/28","22:30",0.0,17.0,94.1,1003.1,321.0,1.5,1.9,306.0,0.00,16.1,19.6,"22:21:44",1
"16/05/28","22:40",0.0,17.1,93.7,1003.1,333.6,1.3,2.4,339.8,0.00,16.1,19.9,"22:36:32",1
"16/05/28","22:50",0.0,17.2,93.2,1003.1,319.8,1.2,2.4,333.0,0.00,16.1,19.7,"22:41:44",1
"16/05/28","23:00",0.0,17.2,92.8,1003.4,306.0,1.3,2.1,315.2,0.00,16.1,19.7,"22:57:20",1
"16/05/28","23:10",0.0,17.5,92.0,1003.4,322.0,2.0,2.5,315.0,0.00,16.2,19.7,"23:00:56",1
"16/05/28","23:20",0.0,17.5,91.5,1003.4,325.9,1.8,2.8,345.9,0.00,16.1,19.6,"23:19:44",1
"16/05/28","23:30",0.0,17.5,91.1,1003.4,321.5,1.7,2.4,334.1,0.00,16.1,19.6,"23:21:28",1
"16/05/28","23:40",0.0,17.5,90.7,1002.9,319.2,1.6,3.6,341.2,0.00,16.0,19.6,"23:36:16",1
"16/05/28","23:50",0.0,17.3,90.5,1003.1,321.6,1.6,2.2,316.9,0.00,15.8,19.5,"23:40:32",1
"16/05/28","24:00",0.0,17.1,90.8,1003.1,315.3,1.1,1.7,312.7,0.00,15.6,19.3,"23:53:52",1
